DELTA 1 DEB, 21492

Orbit data source: Space-Track

DELTA 1 DEB, 21492 is space debris in SSO originally from a launch on Thu, 12 Jun 1975 UTC launched from the Air Force Western Test Range (AFWTR). Debris objects in space refer to the collection of defunct objects orbiting the Earth. Examples of debris include non-operational satellites, rocket bodies, and fragments generated from explosions, collisions, or faulty payload assembly.

Loading next visibility...
Identifier
21492, 1975-052FM
Orbit
SSO
Country
Flag of USUS
Related business
Manufacturer
Unknown
Mission
Spacecraft
Bus & Motor
Unknown
Mass
Unknown
Launch date (UTC)
1975-06-12 (51 years ago)
Launch vehicle
Unknown
Launch site
Air Force Western Test Range (AFWTR)
Object type
Payload
Rocket body
Debris
Shape & HBR
Unknown shape, 0.1 m
Radar Cross Section
Small (<0.1 m²)

Expand to show TLE details & history
Last TLE update: 2 days ago

TLE from 2 days ago
0 DELTA 1 DEB
1 21492U 75052FM  25352.57558080  .00000064  00000-0  21334-3 0  9998
2 21492  99.8072 117.2168 0061405 280.3782 141.5953 13.33738857684652
Epoch: 2025-12-18T13:48Z
TLE epoch observation values (Epoch: 2025-12-18T13:48:50.181Z)
Latitude
60.93816°
Longitude
164.55085°
Altitude
1,179.259 km
Speed
7.252 km/s
True Right ascension
06h 36m 45s
True Declination
60° 48' 00"
Sunlit
Object was in full shadow at epoch
Visualization orbit readout
Latitude
Unknown
Longitude
Unknown
Altitude
Unknown
Speed
Unknown
Apparent Right ascension
Unknown
Apparent Declination
Unknown
Sunlit
N/A
Visualization observer readout
Local Sidereal Time
10:53:24
Azimuth
Unknown
Elevation
Unknown
Doppler factor
Unknown
Orbital elements
Apogee altitude
1,176.126 km
Perigee altitude
1,083.918 km
Semi-major axis
7,508.159 km
Eccentricity
0.00614
Inclination
99.8072°
RAAN
117.2168°
Arg. of periapsis
280.3782°
True anomaly
142.0298°
Mean anomaly
141.5953°
Eccentric anomaly
141.81281°
Mean motion
3.33613 °/min
Orbital period
107.91 mins
BSTAR
0.00021334
Loading maneuver chart data...
Computing Atmospheric mass density...
Loading historical data...
Loading historical data...
Loading historical data...
Loading historical data...
Loading historical data...
Loading historical data...
Loading historical data...

Documentation

Showing up to 5 results
|